カタログに戻る

DMSP 5D-2 F11

USA 73

運用中気象SSO
NORAD 21798·PAYLOAD·🇺🇸 United States

打ち上げ Nov 28, 1991 から Vandenberg Space Force Base

Loading…

次のパス (今後24時間)

TLE

最新Source: Space-Track

元期: Sep 14, 2026, 13:41 UTC

1 21798U 91082A   26257.57053343  .00000046  00000-0  43784-4 0  9999
2 21798  98.6869 283.8654 0012632  20.1567 340.0104 14.17467224797795

AllMySatでDMSP 5D-2 F11をリアルタイム追跡

Download on the App Store